Showing default

KUIPER-00043, 64504

Orbit data source: Space-Track

KUIPER-00043, 64504 is a payload satellite owned by Kuiper Systems (US) in LEO that was launched on Mon, 23 Jun 2025 UTC via an ATLAS V 551 launch vehicle from the Air Force Eastern Test Range (AFETR). Payload-class satellites include a variety of spacecraft equipped with specific instruments for various scientific and technological missions. These include communications satellites like Starlink; space stations such as the ISS; scientific satellites like the Hubble; Earth observation satellites from companies like Planet Labs, Umbra, and HawkEye 360; GPS; miniature CubeSats for education and research; and military/defense satellites.

Loading next visibility...
Identifier
64504, 2025-134E
Orbit
LEO
Country
Flag of USUS
Related business
Manufacturer
Kuiper Systems
Mission
Operational Commercial Communications
Bus & Motor
KUIPER, Unknown motor
Mass
~490 kg wet, ~490 kg dry
Launch date (UTC)
2025-06-23 (1 year ago)
Launch vehicle
ATLAS V 551
Launch site
Air Force Eastern Test Range (AFETR)
Object type
Payload
Rocket body
Debris
Shape & HBR
Box + 2 Pan, 3.4 m
Radar Cross Section
2.326 m², Large (>1 m²)

Expand to show TLE details & history
Last TLE update: 1 day ago

TLE from 1 day ago
0 KUIPER-00043
1 64504U 25134E   26170.63410336  .00002171  00000-0  31370-3 0  9994
2 64504  51.9010 142.2480 0000658  62.6464 297.4566 14.79931151 55173
Epoch: 2026-06-19T15:13Z
TLE epoch observation values (Epoch: 2026-06-19T15:13:06.530Z)
Latitude
0.00005°
Longitude
6.11056°
Altitude
630.076 km
Speed
7.545 km/s
True Right ascension
09h 28m 59s
True Declination
0° 00' 00"
Sunlit
Object was in daylight at epoch
Visualization orbit readout
Latitude
Unknown
Longitude
Unknown
Altitude
Unknown
Speed
Unknown
Apparent Right ascension
Unknown
Apparent Declination
Unknown
Sunlit
N/A
Visualization observer readout
Local Sidereal Time
07:12:44
Azimuth
Unknown
Elevation
Unknown
Doppler factor
Unknown
Orbital elements
Apogee altitude
630.454 km
Perigee altitude
629.531 km
Semi-major axis
7,008.129 km
Eccentricity
0.00007
Inclination
51.901°
RAAN
142.248°
Arg. of periapsis
62.6464°
True anomaly
297.44991°
Mean anomaly
297.4566°
Eccentric anomaly
297.45325°
Mean motion
3.69947 °/min
Orbital period
97.31 mins
BSTAR
0.0003137
Loading maneuver chart data...
Computing Atmospheric mass density...
Loading historical data...
Loading historical data...
Loading historical data...
Loading historical data...
Loading historical data...
Loading historical data...
Loading historical data...

Documentation

Showing up to 5 results
|